| time (UTC) | temp F | wind direction | speed knots | gust knots | rain 1hr in | rain 24hr in | rain mn in | humidity % | barometer mb |
| 20260510041720 | 62 | 0 | 0.0 | 7.0 | 0.00 | 0.00 | 0.00 | 89 | 1015.2 |
| 20260510041220 | 62 | 0 | 0.0 | 9.6 | 0.00 | 0.00 | 0.00 | 89 | 1015.2 |
| 20260510040720 | 62 | 324 | 0.9 | 9.6 | 0.00 | 0.00 | 0.00 | 89 | 1015.2 |
| 20260510040220 | 62 | 0 | 0.0 | 7.0 | 0.00 | 0.00 | 0.00 | 89 | 1015.3 |
| 20260510035720 | 62 | 0 | 0.0 | 7.0 | 0.00 | 0.00 | 0.00 | 89 | 1015.3 |
| 20260510035222 | 62 | 0 | 0.0 | 7.8 | 0.00 | 0.00 | 0.00 | 89 | 1015.4 |
| 20260510034721 | 61 | 248 | 0.9 | 13.9 | 0.00 | 0.00 | 0.00 | 90 | 1015.3 |
| 20260510034221 | 61 | 248 | 0.9 | 13.9 | 0.00 | 0.00 | 0.00 | 90 | 1015.3 |
| 20260510033721 | 61 | 0 | 0.0 | 3.5 | 0.00 | 0.00 | 0.00 | 90 | 1015.3 |
| 20260510033222 | 61 | 0 | 0.0 | 6.1 | 0.00 | 0.00 | 0.00 | 90 | 1015.4 |
| 20260510033105 | 61 | 0 | 0.0 | 6.1 | 0.00 | 0.00 | 0.00 | 90 | 1015.4 |
| 20260510032720 | 61 | 0 | 0.0 | 6.1 | 0.00 | 0.00 | 0.00 | 90 | 1015.4 |
| 20260510032222 | 61 | 0 | 0.0 | 5.2 | 0.00 | 0.00 | 0.00 | 90 | 1015.3 |
| 20260510031720 | 61 | 0 | 0.0 | 6.1 | 0.00 | 0.00 | 0.00 | 90 | 1015.3 |
| 20260510031221 | 61 | 0 | 0.0 | 6.1 | 0.00 | 0.00 | 0.00 | 89 | 1015.3 |
| 20260510030720 | 61 | 202 | 1.7 | 7.0 | 0.00 | 0.00 | 0.00 | 89 | 1015.2 |
| 20260510030220 | 61 | 0 | 0.0 | 7.0 | 0.00 | 0.00 | 0.00 | 89 | 1015.2 |
| 20260510025722 | 61 | 0 | 0.0 | 6.1 | 0.00 | 0.00 | 0.00 | 89 | 1015.1 |
| 20260510025221 | 61 | 202 | 0.9 | 6.1 | 0.00 | 0.00 | 0.00 | 88 | 1015.1 |
| 20260510024720 | 62 | 202 | 1.7 | 7.0 | 0.00 | 0.00 | 0.00 | 88 | 1015.0 |
| 20260510024221 | 62 | 202 | 0.9 | 7.0 | 0.00 | 0.00 | 0.00 | 88 | 1015.1 |
| 20260510023722 | 62 | 0 | 0.0 | 6.1 | 0.00 | 0.00 | 0.00 | 88 | 1015.0 |
| 20260510023220 | 62 | 0 | 0.0 | 6.1 | 0.00 | 0.00 | 0.00 | 88 | 1015.0 |
| 20260510022720 | 62 | 199 | 0.9 | 7.0 | 0.00 | 0.00 | 0.00 | 88 | 1014.8 |
| 20260510022221 | 62 | 199 | 2.6 | 7.8 | 0.00 | 0.00 | 0.00 | 88 | 1014.9 |
| 20260510021720 | 62 | 200 | 2.6 | 15.6 | 0.00 | 0.00 | 0.00 | 87 | 1014.8 |
| 20260510021220 | 62 | 201 | 2.6 | 15.6 | 0.00 | 0.00 | 0.00 | 87 | 1014.7 |
| 20260510020339 | 62 | 203 | 2.6 | 13.9 | 0.00 | 0.00 | 0.00 | 87 | 1014.6 |
| 20260510015837 | 62 | 204 | 1.7 | 15.6 | 0.00 | 0.00 | 0.00 | 87 | 1014.6 |
| 20260510015337 | 62 | 199 | 6.1 | 15.6 | 0.00 | 0.00 | 0.00 | 86 | 1014.5 |
| 20260510014837 | 62 | 200 | 5.2 | 14.8 | 0.00 | 0.00 | 0.00 | 86 | 1014.5 |
| 20260510014337 | 63 | 206 | 6.1 | 13.9 | 0.00 | 0.00 | 0.00 | 86 | 1014.5 |
| 20260510013837 | 63 | 201 | 6.1 | 14.8 | 0.00 | 0.00 | 0.00 | 85 | 1014.4 |
| 20260510013337 | 63 | 199 | 5.2 | 14.8 | 0.00 | 0.00 | 0.00 | 85 | 1014.2 |
| 20260510012756 | 63 | 197 | 3.5 | 11.3 | 0.00 | 0.00 | 0.00 | 85 | 1014.1 |
| 20260510012255 | 63 | 200 | 2.6 | 11.3 | 0.00 | 0.00 | 0.00 | 85 | 1014.1 |
| 20260510011756 | 63 | 201 | 4.3 | 13.0 | 0.00 | 0.00 | 0.00 | 85 | 1013.9 |
| 20260510011255 | 63 | 197 | 6.1 | 13.0 | 0.00 | 0.00 | 0.00 | 84 | 1013.9 |
| 20260510010755 | 63 | 199 | 6.1 | 13.9 | 0.00 | 0.00 | 0.00 | 85 | 1013.7 |
| 20260510010255 | 63 | 199 | 7.0 | 13.9 | 0.00 | 0.00 | 0.00 | 84 | 1013.7 |
| 20260510005755 | 63 | 198 | 6.1 | 10.4 | 0.00 | 0.00 | 0.00 | 84 | 1013.6 |
| 20260510005255 | 63 | 199 | 3.5 | 9.6 | 0.00 | 0.00 | 0.00 | 84 | 1013.5 |
| 20260510004755 | 63 | 199 | 2.6 | 10.4 | 0.00 | 0.00 | 0.00 | 83 | 1013.4 |
| 20260510004255 | 64 | 200 | 3.5 | 10.4 | 0.00 | 0.00 | 0.00 | 83 | 1013.4 |
| 20260510003755 | 64 | 199 | 3.5 | 9.6 | 0.00 | 0.00 | 0.00 | 82 | 1013.2 |
| 20260510003255 | 64 | 199 | 2.6 | 9.6 | 0.00 | 0.00 | 0.00 | 82 | 1013.1 |
| 20260510002755 | 64 | 199 | 3.5 | 9.6 | 0.00 | 0.00 | 0.00 | 81 | 1013.1 |
| 20260510002255 | 64 | 199 | 2.6 | 10.4 | 0.00 | 0.00 | 0.00 | 81 | 1013.1 |
| 20260510001755 | 64 | 198 | 1.7 | 10.4 | 0.00 | 0.00 | 0.00 | 80 | 1013.0 |
| 20260510001255 | 64 | 200 | 3.5 | 7.8 | 0.00 | 0.00 | 0.00 | 80 | 1013.2 |
| 20260510000755 | 65 | 199 | 3.5 | 8.7 | 0.00 | 0.00 | 0.00 | 79 | 1013.1 |
| 20260510000256 | 65 | 199 | 2.6 | 8.7 | 0.00 | 0.00 | 0.00 | 79 | 1013.0 |
| 20260509235755 | 65 | 201 | 4.3 | 8.7 | 0.00 | 0.00 | 0.00 | 79 | 1012.9 |
| 20260509235257 | 65 | 200 | 2.6 | 7.8 | 0.00 | 0.00 | 0.00 | 78 | 1013.0 |
| 20260509234755 | 65 | 200 | 3.5 | 9.6 | 0.00 | 0.00 | 0.00 | 78 | 1013.0 |
| 20260509234255 | 65 | 198 | 3.5 | 9.6 | 0.00 | 0.00 | 0.00 | 78 | 1012.9 |
| 20260509233755 | 65 | 196 | 3.5 | 8.7 | 0.00 | 0.00 | 0.00 | 77 | 1013.0 |
| 20260509233255 | 65 | 197 | 3.5 | 7.8 | 0.00 | 0.00 | 0.00 | 76 | 1012.9 |
| 20260509232755 | 65 | 195 | 2.6 | 7.0 | 0.00 | 0.00 | 0.00 | 76 | 1012.8 |
| 20260509232255 | 65 | 192 | 1.7 | 7.0 | 0.00 | 0.00 | 0.00 | 76 | 1011.8 |
| 20260509231755 | 66 | 196 | 2.6 | 7.0 | 0.00 | 0.00 | 0.00 | 76 | 1011.7 |
| 20260509231254 | 66 | 193 | 2.6 | 6.1 | 0.00 | 0.00 | 0.00 | 75 | 1011.7 |
| 20260509230754 | 66 | 204 | 2.6 | 7.0 | 0.00 | 0.00 | 0.00 | 74 | 1011.8 |
| 20260509230255 | 66 | 200 | 2.6 | 7.0 | 0.00 | 0.00 | 0.00 | 74 | 1011.6 |
| 20260509225755 | 66 | 193 | 0.9 | 6.1 | 0.00 | 0.00 | 0.00 | 74 | 1011.6 |
| 20260509225255 | 67 | 193 | 0.9 | 5.2 | 0.00 | 0.00 | 0.00 | 72 | 1011.5 |
| 20260509224755 | 67 | 193 | 0.9 | 5.2 | 0.00 | 0.00 | 0.00 | 72 | 1011.4 |
| 20260509224257 | 67 | 0 | 0.0 | 7.0 | 0.00 | 0.00 | 0.00 | 71 | 1011.4 |
| 20260509223755 | 67 | 0 | 0.0 | 7.0 | 0.00 | 0.00 | 0.00 | 71 | 1011.4 |
| 20260509223257 | 67 | 197 | 0.9 | 4.3 | 0.00 | 0.00 | 0.00 | 71 | 1011.3 |
| 20260509222544 | 67 | 197 | 0.9 | 7.0 | 0.00 | 0.00 | 0.00 | 71 | 1011.5 |
| 20260509222044 | 67 | 197 | 2.6 | 7.0 | 0.00 | 0.00 | 0.00 | 70 | 1011.3 |
| 20260509221544 | 67 | 0 | 0.0 | 2.6 | 0.00 | 0.00 | 0.00 | 70 | 1011.4 |
| 20260509221044 | 68 | 0 | 0.0 | 7.0 | 0.00 | 0.00 | 0.00 | 70 | 1011.5 |
| 20260509220544 | 68 | 196 | 0.9 | 7.0 | 0.00 | 0.00 | 0.00 | 70 | 1011.4 |
| 20260509220044 | 67 | 199 | 2.6 | 7.0 | 0.00 | 0.00 | 0.00 | 69 | 1011.4 |
| 20260509215544 | 67 | 0 | 0.0 | 6.1 | 0.00 | 0.00 | 0.00 | 70 | 1011.5 |
| 20260509215044 | 67 | 199 | 1.7 | 6.1 | 0.00 | 0.00 | 0.00 | 69 | 1011.5 |
| 20260509214544 | 67 | 199 | 1.7 | 7.0 | 0.00 | 0.00 | 0.00 | 69 | 1011.5 |
| 20260509214044 | 67 | 199 | 2.6 | 7.0 | 0.00 | 0.00 | 0.00 | 69 | 1011.3 |
| 20260509213544 | 67 | 199 | 0.9 | 5.2 | 0.00 | 0.00 | 0.00 | 69 | 1011.1 |
| 20260509213044 | 68 | 199 | 0.9 | 6.1 | 0.00 | 0.00 | 0.00 | 68 | 1011.2 |
| 20260509212544 | 68 | 199 | 2.6 | 7.8 | 0.00 | 0.00 | 0.00 | 68 | 1011.3 |
| 20260509212044 | 68 | 194 | 3.5 | 7.8 | 0.00 | 0.00 | 0.00 | 67 | 1011.4 |
| 20260509211544 | 69 | 191 | 2.6 | 5.2 | 0.00 | 0.00 | 0.00 | 67 | 1011.3 |
| 20260509211044 | 69 | 189 | 1.7 | 5.2 | 0.00 | 0.00 | 0.00 | 66 | 1011.3 |
| 20260509210051 | 69 | 200 | 2.6 | 7.8 | 0.00 | 0.00 | 0.00 | 68 | 1010.9 |
| 20260509205551 | 69 | 204 | 2.6 | 7.8 | 0.00 | 0.00 | 0.00 | 66 | 1010.9 |
| 20260509205051 | 69 | 198 | 3.5 | 7.8 | 0.00 | 0.00 | 0.00 | 67 | 1010.9 |
| 20260509204551 | 69 | 189 | 2.6 | 7.0 | 0.00 | 0.00 | 0.00 | 66 | 1010.9 |
| 20260509204052 | 69 | 187 | 2.6 | 6.1 | 0.00 | 0.00 | 0.00 | 64 | 1010.9 |
| 20260509203551 | 69 | 185 | 1.7 | 6.1 | 0.00 | 0.00 | 0.00 | 66 | 1011.0 |
| 20260509203051 | 70 | 185 | 2.6 | 6.1 | 0.00 | 0.00 | 0.00 | 66 | 1011.0 |
| 20260509202420 | 70 | 182 | 2.6 | 7.0 | 0.00 | 0.00 | 0.00 | 66 | 1011.0 |
| 20260509201920 | 70 | 199 | 2.6 | 7.0 | 0.00 | 0.00 | 0.00 | 65 | 1011.0 |
| 20260509201421 | 70 | 195 | 1.7 | 7.8 | 0.00 | 0.00 | 0.00 | 65 | 1011.0 |
| 20260509200921 | 69 | 0 | 0.0 | 7.8 | 0.00 | 0.00 | 0.00 | 63 | 1011.0 |
| 20260509200421 | 70 | 190 | 2.6 | 9.6 | 0.00 | 0.00 | 0.00 | 62 | 1011.1 |
| 20260509195920 | 70 | 203 | 4.3 | 9.6 | 0.00 | 0.00 | 0.00 | 61 | 1011.1 |
| 20260509195420 | 70 | 193 | 2.6 | 11.3 | 0.00 | 0.00 | 0.00 | 62 | 1011.1 |
| 20260509194920 | 70 | 196 | 4.3 | 11.3 | 0.00 | 0.00 | 0.00 | 62 | 1011.1 |
| 20260509194420 | 70 | 196 | 2.6 | 10.4 | 0.00 | 0.00 | 0.00 | 66 | 1011.3 |
| 20260509193920 | 68 | 199 | 1.7 | 8.7 | 0.00 | 0.00 | 0.00 | 65 | 1011.4 |
| 20260509193420 | 68 | 198 | 3.5 | 8.7 | 0.00 | 0.00 | 0.00 | 64 | 1011.5 |
| 20260509192920 | 70 | 194 | 2.6 | 10.4 | 0.00 | 0.00 | 0.00 | 62 | 1011.5 |
| 20260509192420 | 71 | 190 | 3.5 | 10.4 | 0.00 | 0.00 | 0.00 | 62 | 1011.5 |
| 20260509191920 | 70 | 193 | 4.3 | 10.4 | 0.00 | 0.00 | 0.00 | 64 | 1011.6 |
| 20260509191420 | 70 | 192 | 3.5 | 8.7 | 0.00 | 0.00 | 0.00 | 63 | 1011.6 |
| 20260509190920 | 70 | 184 | 2.6 | 8.7 | 0.00 | 0.00 | 0.00 | 61 | 1011.6 |
| 20260509190420 | 70 | 176 | 2.6 | 8.7 | 0.00 | 0.00 | 0.00 | 61 | 1011.5 |
| 20260509185920 | 70 | 185 | 1.7 | 6.1 | 0.00 | 0.00 | 0.00 | 62 | 1011.4 |
| 20260509185420 | 69 | 192 | 0.9 | 6.1 | 0.00 | 0.00 | 0.00 | 63 | 1011.4 |
| 20260509184558 | 68 | 201 | 3.5 | 7.8 | 0.00 | 0.00 | 0.00 | 64 | 1011.5 |
| 20260509184057 | 69 | 196 | 1.7 | 7.0 | 0.00 | 0.00 | 0.00 | 64 | 1011.7 |
| 20260509183558 | 68 | 195 | 2.6 | 7.0 | 0.00 | 0.00 | 0.00 | 66 | 1011.8 |
| 20260509183057 | 68 | 186 | 2.6 | 10.4 | 0.00 | 0.00 | 0.00 | 64 | 1011.9 |
| 20260509182558 | 68 | 201 | 2.6 | 10.4 | 0.00 | 0.00 | 0.00 | 66 | 1011.8 |
| 20260509182058 | 68 | 202 | 3.5 | 7.8 | 0.00 | 0.00 | 0.00 | 62 | 1012.0 |
| 20260509181557 | 68 | 171 | 1.7 | 7.8 | 0.00 | 0.00 | 0.00 | 66 | 1012.0 |
| 20260509181057 | 67 | 190 | 2.6 | 7.0 | 0.00 | 0.00 | 0.00 | 68 | 1012.2 |
| 20260509180557 | 67 | 196 | 2.6 | 8.7 | 0.00 | 0.00 | 0.00 | 67 | 1012.2 |
| 20260509180057 | 67 | 204 | 0.9 | 8.7 | 0.00 | 0.00 | 0.00 | 69 | 1012.2 |
| 20260509175558 | 67 | 197 | 0.9 | 6.1 | 0.00 | 0.00 | 0.00 | 70 | 1012.4 |
| 20260509175058 | 66 | 200 | 1.7 | 7.8 | 0.00 | 0.00 | 0.00 | 67 | 1012.6 |
| 20260509174558 | 66 | 198 | 0.9 | 7.8 | 0.00 | 0.00 | 0.00 | 68 | 1012.6 |
| 20260509174059 | 66 | 204 | 0.9 | 7.8 | 0.00 | 0.00 | 0.00 | 69 | 1012.5 |
| 20260509173557 | 66 | 0 | 0.0 | 8.7 | 0.00 | 0.00 | 0.00 | 70 | 1012.8 |
| 20260509173057 | 67 | 197 | 3.5 | 8.7 | 0.00 | 0.00 | 0.00 | 67 | 1012.6 |
| 20260509172557 | 68 | 202 | 0.9 | 6.1 | 0.00 | 0.00 | 0.00 | 67 | 1012.6 |
| 20260509172057 | 68 | 197 | 1.7 | 6.1 | 0.00 | 0.00 | 0.00 | 66 | 1012.8 |
| 20260509171557 | 67 | 200 | 1.7 | 5.2 | 0.00 | 0.00 | 0.00 | 67 | 1012.6 |
| 20260509171057 | 66 | 207 | 0.9 | 7.8 | 0.00 | 0.00 | 0.00 | 70 | 1012.7 |
| 20260509170557 | 66 | 0 | 0.0 | 7.8 | 0.00 | 0.00 | 0.00 | 70 | 1012.9 |
| 20260509170057 | 66 | 196 | 1.7 | 7.8 | 0.00 | 0.00 | 0.00 | 72 | 1013.0 |
| 20260509165557 | 64 | 190 | 1.7 | 9.6 | 0.00 | 0.00 | 0.00 | 72 | 1013.0 |
| 20260509165059 | 65 | 199 | 2.6 | 9.6 | 0.00 | 0.00 | 0.00 | 72 | 1013.0 |
| 20260509164558 | 65 | 197 | 4.3 | 9.6 | 0.00 | 0.00 | 0.00 | 73 | 1013.1 |
| 20260509163941 | 64 | 0 | 0.0 | 7.8 | 0.00 | 0.00 | 0.00 | 74 | 1013.2 |
| 20260509163441 | 63 | 197 | 0.9 | 7.8 | 0.00 | 0.00 | 0.00 | 78 | 1013.2 |
| 20260509162941 | 64 | 198 | 1.7 | 7.8 | 0.00 | 0.00 | 0.00 | 75 | 1013.4 |
| 20260509162441 | 64 | 185 | 2.6 | 9.6 | 0.00 | 0.00 | 0.00 | 75 | 1013.3 |
| 20260509161941 | 64 | 193 | 2.6 | 9.6 | 0.00 | 0.00 | 0.00 | 76 | 1013.3 |
| 20260509161441 | 63 | 199 | 2.6 | 8.7 | 0.00 | 0.00 | 0.00 | 79 | 1013.3 |
| 20260509160941 | 62 | 188 | 2.6 | 8.7 | 0.00 | 0.00 | 0.00 | 79 | 1013.2 |
| 20260509160441 | 62 | 192 | 3.5 | 8.7 | 0.00 | 0.00 | 0.00 | 77 | 1013.3 |
| 20260509155941 | 63 | 195 | 3.5 | 9.6 | 0.00 | 0.00 | 0.00 | 76 | 1013.3 |
| 20260509155441 | 64 | 194 | 2.6 | 9.6 | 0.00 | 0.00 | 0.00 | 75 | 1013.3 |
| 20260509154941 | 63 | 180 | 2.6 | 8.7 | 0.00 | 0.00 | 0.00 | 78 | 1013.2 |
| 20260509154441 | 63 | 193 | 3.5 | 7.8 | 0.00 | 0.00 | 0.00 | 77 | 1013.2 |
| 20260509153941 | 63 | 187 | 3.5 | 7.8 | 0.00 | 0.00 | 0.00 | 79 | 1013.2 |
| 20260509153441 | 62 | 182 | 1.7 | 7.0 | 0.00 | 0.00 | 0.00 | 78 | 1013.2 |
| 20260509152941 | 62 | 181 | 0.9 | 7.0 | 0.00 | 0.00 | 0.00 | 78 | 1013.2 |
| 20260509152441 | 62 | 183 | 0.9 | 11.3 | 0.00 | 0.00 | 0.00 | 80 | 1013.3 |
| 20260509151941 | 62 | 188 | 3.5 | 11.3 | 0.00 | 0.00 | 0.00 | 79 | 1013.3 |
| 20260509151441 | 63 | 191 | 3.5 | 12.2 | 0.00 | 0.00 | 0.00 | 78 | 1013.5 |
| 20260509150941 | 62 | 192 | 3.5 | 12.2 | 0.00 | 0.00 | 0.00 | 76 | 1013.5 |
| 20260509150441 | 62 | 184 | 1.7 | 8.7 | 0.00 | 0.00 | 0.00 | 78 | 1013.5 |
| 20260509145941 | 62 | 186 | 2.6 | 9.6 | 0.00 | 0.00 | 0.00 | 79 | 1013.5 |
| 20260509145441 | 61 | 189 | 2.6 | 13.9 | 0.00 | 0.00 | 0.00 | 80 | 1013.4 |
| 20260509144941 | 61 | 177 | 5.2 | 14.8 | 0.00 | 0.00 | 0.00 | 79 | 1013.3 |
| 20260509144441 | 61 | 178 | 3.5 | 14.8 | 0.00 | 0.00 | 0.00 | 80 | 1013.5 |
| 20260509143941 | 61 | 177 | 3.5 | 13.0 | 0.00 | 0.00 | 0.00 | 81 | 1013.6 |
| 20260509143441 | 60 | 177 | 1.7 | 7.0 | 0.00 | 0.00 | 0.00 | 83 | 1013.6 |
| 20260509142941 | 60 | 0 | 0.0 | 8.7 | 0.00 | 0.00 | 0.00 | 83 | 1013.4 |
| 20260509142529 | 60 | 176 | 2.6 | 9.6 | 0.00 | 0.00 | 0.00 | 82 | 1013.5 |
| 20260509142441 | 60 | 176 | 2.6 | 9.6 | 0.00 | 0.00 | 0.00 | 82 | 1013.5 |
| 20260509141940 | 60 | 182 | 1.7 | 9.6 | 0.00 | 0.00 | 0.00 | 82 | 1013.5 |
| 20260509141441 | 59 | 188 | 2.6 | 13.0 | 0.00 | 0.00 | 0.00 | 82 | 1013.4 |
| 20260509140941 | 59 | 180 | 2.6 | 13.0 | 0.00 | 0.00 | 0.00 | 83 | 1013.4 |
| 20260509140441 | 58 | 178 | 3.5 | 12.2 | 0.00 | 0.00 | 0.00 | 84 | 1013.3 |
| 20260509135943 | 58 | 197 | 3.5 | 8.7 | 0.00 | 0.00 | 0.00 | 85 | 1013.2 |
| 20260509135441 | 58 | 192 | 5.2 | 10.4 | 0.00 | 0.00 | 0.00 | 83 | 1013.5 |
| 20260509134940 | 58 | 183 | 3.5 | 10.4 | 0.00 | 0.00 | 0.00 | 83 | 1013.5 |
| 20260509134440 | 58 | 183 | 1.7 | 7.8 | 0.00 | 0.00 | 0.00 | 83 | 1013.5 |
| 20260509133940 | 58 | 176 | 4.3 | 7.8 | 0.00 | 0.00 | 0.00 | 83 | 1013.4 |
| 20260509133440 | 58 | 188 | 2.6 | 7.8 | 0.00 | 0.00 | 0.00 | 84 | 1013.6 |
| 20260509132941 | 57 | 199 | 3.5 | 9.6 | 0.00 | 0.00 | 0.00 | 84 | 1013.9 |
| 20260509132441 | 57 | 187 | 4.3 | 9.6 | 0.00 | 0.00 | 0.00 | 83 | 1013.9 |
| 20260509131940 | 57 | 192 | 2.6 | 7.8 | 0.00 | 0.00 | 0.00 | 85 | 1014.0 |
| 20260509131441 | 56 | 188 | 1.7 | 7.8 | 0.00 | 0.00 | 0.00 | 86 | 1014.0 |
| 20260509130941 | 56 | 195 | 2.6 | 8.7 | 0.00 | 0.00 | 0.00 | 85 | 1014.2 |
| 20260509130440 | 56 | 177 | 4.3 | 8.7 | 0.00 | 0.00 | 0.00 | 84 | 1014.5 |
| 20260509125940 | 56 | 174 | 3.5 | 8.7 | 0.00 | 0.00 | 0.00 | 85 | 1014.6 |
| 20260509125442 | 55 | 202 | 2.6 | 8.7 | 0.00 | 0.00 | 0.00 | 85 | 1014.7 |
| 20260509124940 | 54 | 0 | 0.0 | 8.7 | 0.00 | 0.00 | 0.00 | 87 | 1014.6 |
| 20260509124442 | 54 | 198 | 1.7 | 11.3 | 0.00 | 0.00 | 0.00 | 86 | 1014.7 |
| 20260509123941 | 54 | 197 | 0.9 | 11.3 | 0.00 | 0.00 | 0.00 | 86 | 1014.7 |
| 20260509123440 | 54 | 199 | 0.9 | 9.6 | 0.00 | 0.00 | 0.00 | 86 | 1014.7 |
| 20260509122944 | 53 | 0 | 0.0 | 8.7 | 0.00 | 0.00 | 0.00 | 85 | 1014.9 |
| 20260509122440 | 53 | 0 | 0.0 | 4.3 | 0.00 | 0.00 | 0.00 | 87 | 1014.8 |
| 20260509121941 | 53 | 0 | 0.0 | 4.3 | 0.00 | 0.00 | 0.00 | 88 | 1014.7 |
| 20260509121441 | 52 | 0 | 0.0 | 4.3 | 0.00 | 0.00 | 0.00 | 88 | 1014.6 |
| 20260509120943 | 52 | 0 | 0.0 | 0.9 | 0.00 | 0.00 | 0.00 | 87 | 1014.5 |
| 20260509120440 | 52 | 0 | 0.0 | 3.5 | 0.00 | 0.00 | 0.00 | 87 | 1014.3 |
| 20260509115942 | 52 | 0 | 0.0 | 6.1 | 0.00 | 0.00 | 0.00 | 87 | 1014.2 |
| 20260509115441 | 52 | 0 | 0.0 | 6.1 | 0.00 | 0.00 | 0.00 | 87 | 1014.3 |
| 20260509115109 | 52 | 201 | 2.6 | 9.6 | 0.00 | 0.00 | 0.00 | 86 | 1014.2 |
| 20260509114837 | 52 | 201 | 2.6 | 9.6 | 0.00 | 0.00 | 0.00 | 86 | 1014.2 |
| 20260509114338 | 52 | 0 | 0.0 | 7.0 | 0.00 | 0.00 | 0.00 | 86 | 1014.1 |
| 20260509113837 | 52 | 0 | 0.0 | 6.1 | 0.00 | 0.00 | 0.00 | 86 | 1014.2 |
| 20260509113623 | 52 | 202 | 0.9 | 6.1 | 0.00 | 0.00 | 0.00 | 86 | 1014.4 |
| 20260509113336 | 52 | 202 | 0.9 | 6.1 | 0.00 | 0.00 | 0.00 | 86 | 1014.4 |
| 20260509112836 | 52 | 200 | 0.9 | 5.2 | 0.00 | 0.00 | 0.00 | 86 | 1014.3 |
| 20260509112339 | 51 | 202 | 0.9 | 6.1 | 0.00 | 0.00 | 0.00 | 85 | 1014.2 |
| 20260509112336 | 52 | 0 | 0.0 | 4.3 | 0.00 | 0.00 | 0.00 | 85 | 1014.2 |
| 20260509111837 | 51 | 202 | 0.9 | 6.1 | 0.00 | 0.00 | 0.00 | 85 | 1014.2 |
| 20260509111337 | 51 | 0 | 0.0 | 6.1 | 0.00 | 0.00 | 0.00 | 85 | 1014.1 |
| 20260509110836 | 51 | 202 | 0.9 | 7.0 | 0.00 | 0.00 | 0.00 | 85 | 1014.0 |
| 20260509110340 | 51 | 201 | 0.9 | 7.0 | 0.00 | 0.00 | 0.00 | 84 | 1013.9 |
| 20260509105836 | 52 | 202 | 2.6 | 7.0 | 0.00 | 0.00 | 0.00 | 84 | 1013.9 |
| 20260509105336 | 52 | 202 | 0.9 | 5.2 | 0.00 | 0.00 | 0.00 | 84 | 1014.0 |
| 20260509104836 | 52 | 201 | 0.9 | 5.2 | 0.00 | 0.00 | 0.00 | 83 | 1014.0 |
| 20260509104336 | 52 | 202 | 1.7 | 6.1 | 0.00 | 0.00 | 0.00 | 83 | 1013.9 |
| 20260509103836 | 52 | 0 | 0.0 | 7.0 | 0.00 | 0.00 | 0.00 | 83 | 1013.9 |
| 20260509103336 | 52 | 202 | 0.9 | 7.0 | 0.00 | 0.00 | 0.00 | 82 | 1013.8 |
| 20260509102836 | 52 | 202 | 1.7 | 7.8 | 0.00 | 0.00 | 0.00 | 82 | 1013.7 |
| 20260509102336 | 52 | 199 | 1.7 | 7.8 | 0.00 | 0.00 | 0.00 | 82 | 1013.6 |
| 20260509101836 | 52 | 199 | 1.7 | 7.0 | 0.00 | 0.00 | 0.00 | 82 | 1013.6 |
| 20260509101336 | 52 | 200 | 3.5 | 7.0 | 0.00 | 0.00 | 0.00 | 82 | 1013.4 |
| 20260509100836 | 52 | 199 | 1.7 | 7.8 | 0.00 | 0.00 | 0.00 | 81 | 1013.4 |
| 20260509100336 | 53 | 199 | 2.6 | 7.8 | 0.00 | 0.00 | 0.00 | 81 | 1013.3 |
| 20260509095836 | 53 | 202 | 0.9 | 6.1 | 0.00 | 0.00 | 0.00 | 80 | 1013.4 |
| 20260509095336 | 53 | 203 | 0.9 | 6.1 | 0.00 | 0.00 | 0.00 | 80 | 1013.2 |
| 20260509094836 | 53 | 0 | 0.0 | 10.4 | 0.00 | 0.00 | 0.00 | 79 | 1013.2 |
| 20260509094336 | 53 | 202 | 3.5 | 10.4 | 0.00 | 0.00 | 0.00 | 79 | 1013.3 |
| 20260509093836 | 54 | 195 | 1.7 | 7.8 | 0.00 | 0.00 | 0.00 | 79 | 1013.4 |
| 20260509093336 | 54 | 197 | 1.7 | 7.8 | 0.00 | 0.00 | 0.00 | 78 | 1013.5 |
| 20260509092836 | 54 | 195 | 1.7 | 7.8 | 0.00 | 0.00 | 0.00 | 78 | 1013.6 |
| 20260509092336 | 54 | 213 | 1.7 | 10.4 | 0.00 | 0.00 | 0.00 | 78 | 1013.4 |
| 20260509091836 | 53 | 207 | 0.9 | 10.4 | 0.00 | 0.00 | 0.00 | 78 | 1013.5 |
| 20260509091339 | 53 | 206 | 2.6 | 9.6 | 0.00 | 0.00 | 0.00 | 79 | 1013.5 |
| 20260509090836 | 54 | 199 | 3.5 | 9.6 | 0.00 | 0.00 | 0.00 | 79 | 1013.4 |
| 20260509090336 | 54 | 202 | 4.3 | 14.8 | 0.00 | 0.00 | 0.00 | 77 | 1013.5 |
| 20260509085836 | 54 | 203 | 7.0 | 14.8 | 0.00 | 0.00 | 0.00 | 77 | 1013.5 |
| 20260509085336 | 54 | 197 | 3.5 | 13.9 | 0.00 | 0.00 | 0.00 | 77 | 1013.6 |
| 20260509084837 | 54 | 197 | 4.3 | 13.9 | 0.00 | 0.00 | 0.00 | 78 | 1013.7 |
| 20260509084337 | 54 | 203 | 3.5 | 11.3 | 0.00 | 0.00 | 0.00 | 78 | 1013.8 |
| 20260509083836 | 54 | 197 | 2.6 | 11.3 | 0.00 | 0.00 | 0.00 | 78 | 1013.7 |
| 20260509083227 | 54 | 201 | 3.5 | 12.2 | 0.00 | 0.00 | 0.00 | 78 | 1013.8 |
| 20260509082725 | 54 | 198 | 4.3 | 12.2 | 0.00 | 0.00 | 0.00 | 78 | 1013.8 |
| 20260509082226 | 54 | 201 | 4.3 | 12.2 | 0.00 | 0.00 | 0.00 | 77 | 1013.9 |
| 20260509081725 | 54 | 199 | 1.7 | 10.4 | 0.00 | 0.00 | 0.00 | 77 | 1013.9 |
| 20260509081225 | 54 | 203 | 2.6 | 10.4 | 0.00 | 0.00 | 0.00 | 77 | 1013.9 |
| 20260509080725 | 54 | 197 | 2.6 | 8.7 | 0.00 | 0.00 | 0.00 | 77 | 1013.9 |
| 20260509080225 | 54 | 196 | 1.7 | 7.0 | 0.00 | 0.00 | 0.00 | 76 | 1014.0 |
| 20260509075725 | 54 | 206 | 1.7 | 7.0 | 0.00 | 0.00 | 0.00 | 76 | 1014.1 |
| 20260509075228 | 54 | 194 | 0.9 | 6.1 | 0.00 | 0.00 | 0.00 | 76 | 1014.1 |
| 20260509074725 | 54 | 199 | 0.9 | 6.1 | 0.00 | 0.00 | 0.00 | 76 | 1014.1 |
| 20260509074225 | 54 | 219 | 0.9 | 6.1 | 0.00 | 0.00 | 0.00 | 76 | 1014.1 |
| 20260509073725 | 54 | 200 | 0.9 | 7.8 | 0.00 | 0.00 | 0.00 | 76 | 1014.1 |
| 20260509073227 | 54 | 202 | 1.7 | 9.6 | 0.00 | 0.00 | 0.00 | 77 | 1014.1 |
| 20260509072725 | 54 | 203 | 2.6 | 9.6 | 0.00 | 0.00 | 0.00 | 77 | 1014.3 |
| 20260509072226 | 54 | 198 | 2.6 | 10.4 | 0.00 | 0.00 | 0.00 | 77 | 1014.3 |
| 20260509071725 | 54 | 204 | 3.5 | 11.3 | 0.00 | 0.00 | 0.00 | 77 | 1014.3 |
| 20260509071226 | 54 | 199 | 2.6 | 11.3 | 0.00 | 0.00 | 0.00 | 77 | 1014.3 |
| 20260509070725 | 54 | 198 | 4.3 | 10.4 | 0.00 | 0.00 | 0.00 | 78 | 1014.3 |
| 20260509070226 | 54 | 195 | 4.3 | 10.4 | 0.00 | 0.00 | 0.00 | 78 | 1014.3 |
| 20260509065725 | 54 | 203 | 1.7 | 12.2 | 0.00 | 0.00 | 0.00 | 78 | 1014.3 |
| 20260509065227 | 54 | 211 | 1.7 | 12.2 | 0.00 | 0.00 | 0.00 | 78 | 1014.5 |
| 20260509064725 | 53 | 198 | 2.6 | 8.7 | 0.00 | 0.00 | 0.00 | 79 | 1014.6 |
| 20260509064225 | 53 | 202 | 4.3 | 9.6 | 0.00 | 0.00 | 0.00 | 79 | 1014.6 |
| 20260509063725 | 54 | 199 | 4.3 | 9.6 | 0.00 | 0.00 | 0.00 | 78 | 1014.8 |
| 20260509063226 | 54 | 203 | 3.5 | 9.6 | 0.00 | 0.00 | 0.00 | 77 | 1014.8 |
| 20260509062725 | 54 | 200 | 3.5 | 10.4 | 0.00 | 0.00 | 0.00 | 77 | 1014.9 |
| 20260509062226 | 54 | 204 | 3.5 | 10.4 | 0.00 | 0.00 | 0.00 | 77 | 1015.0 |
| 20260509061725 | 54 | 201 | 5.2 | 9.6 | 0.00 | 0.00 | 0.00 | 76 | 1015.0 |
| 20260509061225 | 54 | 196 | 2.6 | 9.6 | 0.00 | 0.00 | 0.00 | 77 | 1015.0 |
| 20260509060725 | 54 | 201 | 3.5 | 13.9 | 0.00 | 0.00 | 0.00 | 76 | 1015.1 |
| 20260509060226 | 54 | 199 | 5.2 | 13.9 | 0.00 | 0.00 | 0.00 | 76 | 1015.2 |
| 20260509055726 | 54 | 210 | 4.3 | 12.2 | 0.00 | 0.00 | 0.00 | 75 | 1015.2 |
| 20260509055228 | 54 | 201 | 3.5 | 9.6 | 0.00 | 0.00 | 0.00 | 74 | 1015.3 |
| 20260509054725 | 54 | 197 | 4.3 | 11.3 | 0.00 | 0.00 | 0.00 | 73 | 1015.4 |
| 20260509054225 | 54 | 200 | 0.9 | 20.9 | 0.00 | 0.00 | 0.00 | 73 | 1015.5 |
| 20260509053726 | 54 | 198 | 7.0 | 20.9 | 0.00 | 0.00 | 0.00 | 72 | 1015.6 |
| 20260509053228 | 54 | 206 | 2.6 | 11.3 | 0.00 | 0.00 | 0.00 | 72 | 1015.7 |
| 20260509052725 | 54 | 203 | 2.6 | 9.6 | 0.00 | 0.00 | 0.00 | 71 | 1015.8 |
| 20260509052225 | 54 | 196 | 3.5 | 11.3 | 0.00 | 0.00 | 0.00 | 70 | 1015.9 |
| 20260509051725 | 54 | 201 | 4.3 | 14.8 | 0.00 | 0.00 | 0.00 | 70 | 1015.9 |
| 20260509051227 | 55 | 194 | 5.2 | 18.2 | 0.00 | 0.00 | 0.00 | 69 | 1016.0 |
| 20260509050725 | 55 | 199 | 9.6 | 19.1 | 0.00 | 0.00 | 0.00 | 68 | 1015.8 |
| 20260509050228 | 55 | 199 | 10.4 | 21.7 | 0.00 | 0.00 | 0.00 | 68 | 1015.7 |
| 20260509045727 | 55 | 199 | 10.4 | 21.7 | 0.00 | 0.00 | 0.00 | 67 | 1015.9 |
| 20260509045227 | 56 | 201 | 10.4 | 17.4 | 0.00 | 0.00 | 0.00 | 66 | 1015.9 |
| 20260509044725 | 56 | 201 | 7.8 | 18.2 | 0.00 | 0.00 | 0.00 | 66 | 1015.9 |
| 20260509044226 | 56 | 199 | 11.3 | 18.2 | 0.00 | 0.00 | 0.00 | 66 | 1016.0 |
| 20260509043725 | 56 | 195 | 6.1 | 16.5 | 0.00 | 0.00 | 0.00 | 67 | 1015.9 |
| 20260509043229 | 56 | 201 | 7.8 | 15.6 | 0.00 | 0.00 | 0.00 | 68 | 1016.0 |
| 20260509042725 | 56 | 195 | 7.8 | 14.8 | 0.00 | 0.00 | 0.00 | 68 | 1015.9 |
| 20260509042227 | 56 | 198 | 6.1 | 11.3 | 0.00 | 0.00 | 0.00 | 68 | 1016.0 |